User: anonymous   Login
Location: Ballingbuur
(53.0000°N, 5.7667°E)
Time: 09:49:10
(UTC+00:00)
Language:

USA 229 - Orbit

View from above orbital plane
View from above orbital plane
View from above satellite
View from above satellite

Ground track
Ground track

The orbit data is extracted from the following two-line orbital elements,

1 37386U 11014A   21062.19324530 0.00000000  00000-0  00000-0 0    05
2 37386  63.4420 167.4892 0189346 358.7276   1.2724 13.40817270    03
Epoch (UTC): 03 March 2021 04:38:16
Eccentricity: 0.0189346
inclination: 63.4420°
perigee height: 964 km
apogee height: 1248 km
right ascension of ascending node: 167.4892°
argument of perigee: 358.7276°
revolutions per day: 13.40817270
mean anomaly at epoch: 1.2724°
orbit number at epoch: 0

The dashed part of the orbit path shows where the satellite is in the earth's shadow,  

DLR